Temp
61 61 61 60 60 60 60 60 60 61 61 61 61 61 61 61 60 58 61 71 71 74 75 80 80 78 75 70 74 72 58 54 57 63 61 70 65 71 79 78 80 81 80 80 80
60 60 60 60 60 60 60 60 60 60 60 61 61 60 60 60 55 59 73 73 74 75 77 73 73 75 68 67 69 66 56 61 69 71 64 68 69 71 73 75 74 78 82 82 80
59 60 60 60 60 59 59 60 60 60 60 60 60 60 60 59 59 70 77 75 75 77 78 76 73 70 60 62 64 61 61 69 75 72 73 71 69 71 72 68 74 74 72 75 74
59 59 59 59 59 59 59 59 60 60 60 59 59 59 60 57 58 78 77 75 75 79 76 72 68 60 57 58 64 58 70 70 75 74 72 69 69 68 72 72 81 76 75 74 71
58 59 59 59 59 59 59 59 59 59 59 59 59 59 56 56 63 80 77 76 77 78 75 70 65 63 57 62 66 64 70 72 77 72 73 73 69 68 67 76 78 77 75 72 71
58 58 58 58 58 58 58 58 58 58 58 59 59 60 57 54 78 82 80 77 77 73 70 70 71 70 66 65 64 70 71 73 72 71 72 69 67 70 70 75 76 75 73 72 71
57 57 57 58 58 58 58 57 57 57 58 59 60 62 59 64 81 80 78 73 79 79 75 76 75 71 68 69 72 72 66 70 71 69 69 71 63 65 73 72 73 72 72 72 70
57 57 57 57 58 58 58 57 56 57 59 60 62 60 59 76 77 77 79 79 81 81 81 83 78 73 69 72 72 66 63 55 65 69 71 70 57 69 73 72 70 73 71 69 67
57 56 56 57 57 57 57 56 57 59 60 62 56 57 61 79 78 82 83 82 82 81 81 91 77 70 71 61 57 58 54 54 64 71 68 62 57 70 73 72 70 69 68 66 64
56 56 56 56 56 56 56 55 58 61 61 67 71 59 66 74 81 87 84 86 80 78 77 72 66 61 58 55 47 53 54 57 60 68 68 60 59 68 70 71 70 68 66 65 62
56 56 55 55 56 55 52 54 63 61 61 65 68 69 75 80 87 84 87 83 80 72 63 66 58 53 59 61 65 62 59 61 65 72 69 63 61 66 69 69 67 65 63 62 60
55 55 55 55 55 55 49 60 66 67 59 70 75 74 81 80 75 80 85 74 70 62 64 60 55 65 68 67 65 63 60 61 66 73 68 62 60 66 68 68 68 64 63 62 60
55 55 55 55 55 54 58 66 74 68 58 68 74 73 74 77 72 75 80 75 69 63 62 58 65 72 70 66 65 63 59 62 65 69 69 66 57 60 64 63 66 64 64 63 61
54 55 55 55 57 52 61 72 72 68 49 60 69 75 76 78 71 84 84 77 67 65 64 61 72 70 67 65 67 57 69 69 67 60 57 68 51 55 58 56 62 63 61 61 62
54 55 55 53 45 53 70 67 69 66 39 71 72 81 77 72 74 77 84 75 67 68 65 61 66 65 64 68 72 66 72 68 66 58 54 56 50 50 58 55 56 61 61 63 61
54 55 54 52 45 53 61 62 65 50 41 66 74 72 68 71 73 76 77 78 76 68 67 67 74 70 69 75 72 75 67 61 55 52 46 57 57 48 52 60 57 60 63 63 61
54 53 51 57 58 61 61 61 48 41 64 63 65 70 68 66 69 71 68 64 61 53 54 64 68 71 75 66 69 65 54 45 44 43 44 55 52 53 59 62 64 63 62 62 61
53 52 52 57 54 61 61 53 38 56 58 70 68 68 64 68 67 69 64 60 64 61 54 52 52 66 74 68 64 62 56 45 39 41 46 56 48 54 61 67 64 63 62 61 60
52 49 54 62 61 61 55 41 45 55 65 63 64 59 59 67 66 64 59 60 67 64 56 52 57 72 73 73 69 61 54 60 51 48 46 48 51 60 60 60 61 60 61 59 59
43 47 56 69 66 60 49 45 52 64 68 66 54 59 54 61 62 60 59 66 66 69 66 61 52 70 73 72 72 65 67 53 47 41 38 46 46 48 57 59 59 59 58 60 61
46 51 65 69 66 54 43 47 59 69 69 62 58 57 58 55 60 58 60 67 69 69 67 61 54 63 65 61 61 60 56 55 52 47 42 39 43 57 60 61 58 61 60 60 61
42 48 66 67 53 47 46 57 60 65 67 62 61 58 53 55 55 58 58 63 70 66 61 61 52 51 60 68 71 66 63 57 46 47 46 44 44 62 62 64 64 62 61 62 65
39 44 63 62 45 44 51 58 63 62 62 59 56 58 55 52 48 56 59 67 67 65 57 59 49 45 52 58 62 60 64 59 51 47 46 43 46 63 63 61 61 62 61 63 64
43 43 49 51 50 45 45 50 53 64 62 61 57 56 50 48 52 50 54 61 66 66 62 61 50 49 47 54 58 56 62 62 53 43 46 48 52 57 60 61 61 62 63 64 64
44 41 44 38 44 43 44 50 52 52 59 59 54 52 48 43 46 47 52 54 61 60 60 57 45 50 55 60 62 62 62 62 58 54 49 52 54 57 59 63 63 65 66 65 63
41 39 41 39 43 44 44 46 49 51 53 51 49 53 50 44 47 46 48 48 49 54 53 53 44 52 51 62 64 60 63 61 61 59 56 57 54 61 61 64 63 66 66 65 63
43 45 41 40 41 41 42 46 49 51 54 57 53 49 48 51 53 54 56 54 52 48 48 50 48 46 43 55 57 52 57 60 60 62 59 52 57 61 62 65 61 64 67 65 65
MSLP
1019.74 1019.24 1018.72 1018.15 1017.68 1017.30 1016.95 1016.48 1016.11 1015.63 1015.16 1014.82 1014.43 1014.02 1013.70 1013.33 1012.61 1012.26 1011.14 1008.37 1008.05 1007.64 1008.11 1007.91 1007.56 1007.61 1007.72 1008.02 1007.90 1008.41 1009.85 1010.19 1010.36 1010.55 1011.95 1012.46 1012.59 1012.03 1010.89 1010.50 1010.68 1010.94 1011.13 1011.88 1012.77
1019.80 1019.16 1018.61 1018.15 1017.67 1017.33 1016.79 1016.29 1015.85 1015.37 1014.95 1014.62 1014.25 1013.89 1013.60 1013.24 1012.71 1010.92 1006.89 1006.79 1006.98 1007.45 1008.00 1007.93 1007.83 1007.94 1008.15 1007.92 1007.77 1008.33 1009.32 1008.87 1008.78 1009.06 1010.96 1011.57 1011.37 1011.19 1011.02 1010.62 1011.22 1011.46 1011.53 1012.51 1013.10
1019.78 1019.15 1018.62 1018.09 1017.61 1017.10 1016.51 1015.93 1015.46 1015.08 1014.77 1014.37 1014.04 1013.76 1013.40 1013.23 1012.31 1008.06 1005.69 1006.00 1006.70 1007.19 1007.48 1007.72 1007.89 1008.18 1008.20 1007.90 1007.75 1007.97 1008.21 1007.72 1007.42 1008.18 1008.94 1010.57 1011.43 1010.82 1010.58 1010.86 1010.23 1011.05 1012.16 1013.13 1013.70
1019.80 1019.21 1018.66 1018.03 1017.43 1016.74 1016.16 1015.66 1015.30 1014.93 1014.52 1014.05 1013.85 1013.61 1013.23 1013.21 1010.77 1006.34 1005.60 1005.51 1006.48 1007.14 1007.58 1007.59 1007.86 1008.27 1008.24 1007.91 1007.31 1007.67 1007.11 1007.03 1006.73 1008.14 1009.32 1010.00 1010.80 1010.97 1010.38 1010.32 1010.41 1011.51 1011.96 1012.91 1013.78
1019.83 1019.15 1018.50 1017.78 1017.01 1016.29 1015.78 1015.34 1014.91 1014.52 1014.18 1013.78 1013.61 1013.44 1013.19 1012.46 1009.30 1005.87 1006.03 1006.14 1006.75 1007.21 1007.42 1007.61 1007.82 1008.05 1007.98 1007.39 1007.22 1007.19 1006.64 1006.47 1006.14 1007.68 1008.57 1009.55 1010.11 1010.69 1010.92 1010.81 1011.35 1012.03 1012.13 1012.98 1014.03
1019.69 1018.99 1018.25 1017.33 1016.53 1015.82 1015.21 1014.72 1014.29 1013.99 1013.73 1013.44 1013.35 1013.31 1012.94 1011.11 1006.46 1005.64 1006.01 1006.55 1006.70 1007.08 1007.11 1007.33 1006.94 1007.25 1007.37 1007.22 1007.23 1006.43 1006.32 1006.12 1006.40 1007.67 1008.45 1009.34 1010.65 1010.73 1011.36 1011.46 1011.99 1012.21 1012.24 1012.75 1013.69
1019.49 1018.77 1017.89 1017.00 1016.19 1015.44 1014.77 1014.21 1013.64 1013.38 1013.23 1013.01 1012.98 1012.97 1012.04 1008.32 1006.09 1005.89 1006.26 1006.53 1005.99 1006.48 1006.57 1006.26 1006.52 1007.25 1007.10 1007.17 1006.39 1006.31 1006.45 1005.79 1006.28 1007.57 1008.66 1009.92 1011.43 1010.47 1010.65 1011.41 1011.87 1012.43 1012.56 1013.22 1014.16
1019.25 1018.42 1017.60 1016.77 1015.82 1014.99 1014.28 1013.51 1012.89 1012.63 1012.58 1012.48 1012.54 1012.44 1010.43 1006.48 1006.09 1006.20 1005.96 1006.05 1006.03 1005.76 1005.97 1005.72 1006.23 1006.77 1006.99 1006.51 1006.32 1006.64 1006.56 1006.30 1005.60 1007.15 1008.23 1007.98 1010.02 1010.18 1010.62 1011.04 1011.60 1012.33 1012.89 1013.78 1014.95
1018.98 1018.14 1017.27 1016.40 1015.51 1014.56 1013.69 1012.79 1012.04 1011.72 1012.03 1012.15 1012.33 1011.75 1008.90 1005.73 1005.73 1004.65 1005.11 1005.51 1005.52 1005.50 1005.48 1005.37 1005.94 1006.54 1006.64 1007.09 1007.53 1007.43 1007.05 1006.55 1005.90 1005.59 1007.18 1008.34 1009.66 1010.25 1010.81 1011.02 1011.83 1012.41 1013.34 1014.40 1015.64
1018.71 1017.81 1016.83 1015.91 1015.16 1014.23 1013.25 1012.12 1011.50 1011.61 1011.95 1011.84 1011.28 1011.01 1007.72 1005.66 1004.65 1004.00 1004.33 1004.60 1005.34 1005.43 1005.81 1005.91 1006.31 1006.96 1007.59 1008.22 1008.40 1007.97 1007.45 1006.51 1006.04 1005.66 1006.56 1007.81 1008.54 1009.47 1010.06 1010.60 1011.50 1012.39 1013.57 1014.63 1015.96
1018.44 1017.50 1016.43 1015.42 1014.71 1014.08 1013.30 1012.19 1011.76 1011.40 1011.02 1010.02 1009.13 1008.14 1006.23 1005.12 1004.26 1003.93 1003.76 1004.23 1004.84 1005.51 1006.32 1006.43 1007.40 1007.70 1007.77 1007.97 1007.76 1007.62 1007.43 1006.91 1005.93 1005.31 1006.07 1006.97 1008.18 1008.89 1009.77 1010.65 1011.74 1012.94 1014.18 1015.48 1016.34
1018.30 1017.29 1016.04 1014.87 1014.21 1013.69 1013.63 1012.80 1011.40 1010.55 1009.46 1007.68 1006.73 1006.24 1005.30 1005.19 1005.18 1004.17 1003.76 1004.58 1005.07 1005.93 1006.38 1007.20 1007.36 1006.90 1006.94 1007.14 1007.46 1007.32 1007.12 1006.42 1005.48 1004.51 1005.06 1006.41 1007.48 1008.77 1009.50 1010.22 1011.24 1012.31 1013.91 1014.57 1016.17
1017.91 1017.03 1016.01 1014.54 1013.65 1013.27 1012.94 1011.25 1009.85 1009.70 1009.45 1005.89 1005.03 1004.68 1004.42 1004.66 1004.66 1004.01 1004.01 1004.11 1004.95 1005.89 1006.48 1006.97 1006.15 1006.04 1006.47 1006.45 1006.78 1006.46 1006.40 1005.83 1005.44 1004.86 1005.34 1006.53 1009.08 1010.27 1011.11 1011.37 1012.42 1013.62 1014.72 1015.63 1015.76
1017.66 1016.79 1015.96 1014.45 1013.43 1013.58 1011.87 1010.03 1009.49 1009.26 1009.30 1006.15 1004.10 1002.84 1003.08 1003.57 1003.57 1002.89 1003.07 1003.79 1004.71 1005.37 1006.17 1006.32 1005.35 1005.68 1005.66 1005.75 1005.56 1005.54 1004.77 1005.02 1005.14 1005.34 1005.98 1005.80 1009.30 1010.29 1011.07 1011.88 1012.38 1012.98 1013.35 1014.38 1013.31
1017.31 1016.62 1015.95 1015.73 1015.01 1013.57 1010.98 1009.99 1009.56 1009.46 1008.71 1005.01 1003.30 1002.15 1002.41 1002.85 1002.44 1001.93 1002.34 1003.26 1004.25 1005.07 1005.83 1005.34 1004.98 1004.96 1004.95 1004.52 1004.21 1004.30 1003.94 1004.48 1005.20 1005.85 1006.52 1007.04 1008.70 1009.73 1010.36 1011.83 1011.90 1012.33 1012.56 1013.20 1014.31
1016.68 1015.93 1015.61 1015.21 1015.05 1012.12 1010.90 1010.32 1009.93 1010.28 1008.21 1005.33 1003.98 1003.78 1003.84 1003.19 1002.60 1002.22 1002.64 1003.04 1003.63 1004.76 1005.10 1004.95 1004.19 1004.39 1003.82 1003.35 1003.39 1003.21 1003.51 1004.42 1005.80 1006.79 1007.75 1007.35 1008.14 1009.64 1009.99 1009.29 1010.89 1011.71 1012.38 1013.38 1014.59
1016.04 1014.76 1014.99 1014.24 1012.81 1011.12 1011.02 1010.90 1011.22 1010.05 1007.73 1006.32 1005.41 1004.83 1004.47 1004.11 1003.41 1003.13 1003.25 1003.76 1004.35 1005.21 1005.26 1004.91 1003.92 1003.33 1003.24 1003.26 1002.58 1002.98 1004.54 1005.94 1007.09 1007.73 1008.05 1007.38 1008.22 1008.15 1008.25 1008.10 1008.47 1010.15 1011.82 1012.78 1013.71
1015.31 1013.92 1013.51 1012.72 1011.58 1011.65 1011.58 1011.82 1011.69 1010.03 1008.47 1007.39 1006.58 1005.58 1005.16 1004.93 1004.34 1003.74 1003.61 1003.76 1004.14 1004.69 1005.29 1005.24 1004.07 1002.94 1002.40 1002.56 1002.63 1003.21 1004.32 1006.23 1007.27 1008.06 1008.23 1007.62 1007.93 1007.73 1007.74 1008.30 1009.09 1009.98 1011.32 1012.50 1013.66
1014.77 1013.59 1013.06 1011.14 1011.20 1011.81 1012.47 1012.96 1011.88 1010.20 1008.83 1007.89 1007.37 1006.43 1005.86 1005.81 1005.53 1004.62 1004.48 1004.58 1004.00 1003.91 1004.77 1004.92 1003.82 1002.59 1002.15 1002.03 1002.62 1002.75 1003.75 1004.36 1006.31 1007.38 1008.01 1007.82 1007.79 1007.49 1007.93 1008.57 1009.31 1010.23 1011.29 1012.36 1013.10
1015.91 1014.81 1012.57 1010.32 1010.83 1011.77 1012.91 1012.97 1011.57 1009.96 1009.00 1008.46 1008.31 1007.91 1007.19 1006.92 1006.16 1005.52 1005.03 1004.42 1004.44 1004.35 1004.03 1003.99 1003.82 1002.15 1001.49 1001.60 1001.42 1002.22 1002.35 1004.51 1006.29 1007.54 1008.31 1008.29 1007.73 1007.65 1007.61 1008.48 1009.03 1010.01 1010.77 1011.74 1012.69
1016.16 1014.77 1011.52 1010.55 1011.09 1012.67 1013.64 1012.85 1011.30 1009.98 1009.08 1008.86 1008.95 1008.64 1008.37 1008.17 1007.32 1006.49 1005.71 1004.88 1004.44 1004.56 1004.58 1004.84 1004.43 1002.46 1002.04 1001.68 1001.82 1002.14 1002.43 1003.88 1005.52 1006.70 1007.68 1008.36 1007.64 1006.37 1006.57 1006.84 1008.22 1008.89 1009.88 1010.63 1011.56
1017.72 1015.67 1011.83 1011.41 1012.71 1013.58 1013.74 1012.82 1011.51 1010.36 1009.54 1009.64 1009.70 1009.62 1009.80 1009.54 1008.39 1007.43 1006.47 1005.89 1005.30 1005.27 1005.60 1005.41 1005.02 1004.18 1002.60 1001.33 1001.18 1001.45 1002.01 1003.02 1005.37 1006.59 1007.39 1007.50 1006.80 1005.30 1005.60 1005.94 1006.76 1007.76 1008.81 1009.69 1010.36
1019.30 1016.88 1012.49 1012.32 1014.38 1015.14 1014.51 1013.40 1012.06 1010.95 1010.31 1010.29 1010.52 1010.92 1011.14 1010.85 1009.99 1008.95 1007.68 1007.26 1006.72 1006.83 1007.25 1006.63 1006.04 1005.36 1003.41 1002.30 1001.32 1001.29 1001.94 1002.73 1004.06 1005.62 1006.51 1006.87 1005.99 1004.78 1004.77 1005.61 1006.29 1007.07 1008.41 1009.45 1010.39
1019.36 1018.07 1015.97 1015.41 1015.90 1016.33 1015.92 1014.41 1012.86 1011.26 1010.85 1010.83 1011.37 1011.70 1011.77 1011.54 1011.10 1010.26 1009.42 1008.46 1008.08 1007.68 1007.85 1007.02 1006.92 1006.88 1005.52 1003.09 1001.77 1001.65 1001.75 1002.67 1003.80 1005.55 1005.91 1005.72 1005.21 1004.99 1005.05 1005.16 1005.75 1006.59 1007.45 1008.47 1009.51
1019.67 1019.87 1019.33 1018.43 1017.60 1017.49 1016.80 1015.60 1014.24 1013.04 1011.85 1011.94 1012.04 1012.74 1012.81 1012.41 1011.62 1011.01 1010.34 1009.68 1008.72 1008.47 1008.45 1009.30 1008.10 1007.33 1005.47 1003.54 1001.46 1001.04 1001.29 1002.24 1003.02 1003.83 1004.62 1004.90 1005.15 1004.71 1004.52 1004.68 1005.05 1005.65 1006.97 1008.50 1009.62
1020.87 1020.98 1020.44 1019.71 1018.77 1018.08 1017.24 1016.48 1015.49 1014.63 1013.73 1013.46 1013.36 1013.05 1013.04 1013.08 1013.05 1012.20 1011.22 1010.55 1010.20 1008.95 1009.80 1009.38 1009.12 1008.34 1006.12 1003.71 1001.92 1001.02 1000.62 1001.20 1001.95 1002.81 1003.69 1003.88 1004.33 1003.75 1004.39 1004.26 1005.14 1005.78 1006.69 1007.79 1008.96
1021.84 1021.40 1021.23 1020.38 1019.52 1018.83 1018.39 1017.64 1016.56 1015.79 1014.73 1014.34 1013.91 1013.35 1013.16 1013.04 1012.88 1011.85 1010.89 1010.49 1010.16 1010.10 1009.74 1009.83 1009.64 1009.62 1007.68 1005.17 1003.46 1001.51 1000.35 1000.74 1001.24 1001.65 1002.26 1003.39 1003.36 1003.48 1003.98 1004.09 1004.64 1005.36 1006.26 1006.87 1008.04
Wind_Speed
17 18 18 18 18 18 17 17 17 16 16 16 16 15 15 15 16 1 10 14 10 14 4 8 5 4 2 2 4 4 4 5 5 6 7 16 7 4 9 14 11 6 11 13 21
18 19 19 19 19 18 17 17 17 17 17 16 15 15 14 14 3 9 16 14 16 5 5 1 5 7 4 3 1 6 4 7 8 7 12 16 9 12 9 16 8 20 7 17 19
18 19 20 20 19 19 19 18 18 18 18 16 15 14 12 9 5 10 3 18 13 10 3 2 1 2 2 2 3 3 6 8 9 4 21 13 9 4 17 12 23 22 16 18 17
19 20 20 20 20 20 20 19 19 19 18 17 14 12 9 2 5 4 7 12 12 8 2 2 1 2 2 3 3 1 8 6 11 13 13 21 10 6 6 10 18 16 20 18 18
20 21 21 21 21 21 20 20 20 19 18 15 12 8 2 0 13 7 6 9 8 7 7 6 5 5 4 3 4 6 8 6 12 14 18 19 7 5 3 9 15 17 18 18 15
21 22 22 23 23 22 21 21 20 20 17 14 8 2 1 5 7 5 9 6 5 6 6 7 8 7 5 4 4 5 6 10 4 15 18 16 9 8 5 9 15 15 16 16 16
21 23 23 24 24 24 22 21 21 19 17 11 5 4 2 17 4 7 4 3 8 7 6 7 3 2 2 10 5 4 5 9 9 16 9 17 2 7 17 9 15 14 13 14 15
23 23 25 25 25 25 24 24 23 20 12 7 5 4 9 6 7 6 7 7 7 7 5 8 4 6 7 5 9 5 3 1 4 12 16 9 8 16 18 18 16 16 13 14 11
24 24 25 26 26 26 25 27 23 10 6 4 5 3 12 12 5 11 9 10 8 5 6 7 3 4 6 4 7 7 4 3 7 7 10 1 7 13 13 14 16 15 16 15 13
25 25 26 26 26 25 26 22 9 3 4 5 5 2 6 4 5 5 9 13 5 4 7 0 6 2 5 5 5 5 3 4 6 6 7 7 8 21 16 20 18 16 16 17 15
27 26 27 27 26 23 15 5 6 3 1 7 7 7 9 4 6 5 5 5 4 4 5 4 3 6 10 8 9 5 5 8 7 9 8 10 13 22 17 17 16 15 14 12 13
28 28 29 29 27 26 2 3 5 2 12 16 19 19 20 3 6 10 4 6 5 5 2 4 6 13 7 7 6 6 7 13 9 13 9 15 15 20 20 19 19 18 16 18 15
27 27 28 31 31 3 3 6 8 8 4 10 9 8 8 11 11 14 9 7 6 4 5 8 12 9 10 9 8 11 7 10 10 3 7 11 5 11 9 1 6 9 10 10 17
28 27 26 31 4 6 6 7 10 1 5 10 4 7 8 6 6 10 13 11 3 10 6 8 15 13 9 9 8 8 10 9 8 5 4 6 8 7 8 5 11 18 21 21 22
28 27 23 14 6 3 7 10 11 6 4 5 2 0 6 10 4 5 8 3 10 9 6 10 6 5 6 14 13 15 10 7 6 5 3 0 6 4 9 9 11 19 20 18 18
31 27 20 2 1 10 9 10 4 7 5 5 6 10 5 4 4 3 4 3 6 7 6 13 6 5 9 13 7 10 4 5 5 5 2 6 5 3 8 17 9 14 14 17 16
32 31 11 3 5 4 6 5 7 4 6 5 12 16 9 5 7 5 4 5 7 4 6 6 13 5 6 8 7 3 7 3 5 4 7 4 5 7 14 10 17 18 15 20 18
34 27 6 6 6 5 5 7 2 5 6 7 13 12 4 14 7 7 4 8 5 5 4 6 10 4 5 8 8 8 10 8 8 4 5 4 6 5 8 1 7 9 10 18 16
28 5 2 6 6 3 7 5 6 3 5 9 12 6 3 15 7 7 2 4 7 11 11 6 14 11 9 5 7 6 3 9 6 1 2 2 1 4 6 7 7 11 16 19 18
5 5 5 5 7 5 7 4 4 3 8 10 5 4 13 11 8 8 4 4 6 3 6 10 9 17 17 2 8 8 7 2 3 6 5 3 2 5 5 9 13 15 20 19 17
3 5 5 2 5 6 3 6 4 9 7 5 4 6 5 8 5 4 4 9 1 8 6 4 2 18 3 5 8 4 2 4 5 6 7 4 7 8 11 10 17 19 19 21 20
4 3 4 5 5 1 1 5 6 11 7 5 4 3 3 6 5 5 4 4 8 1 5 3 4 9 15 10 7 6 6 7 7 5 2 6 7 4 10 12 15 17 19 21 22
3 4 5 5 3 4 7 6 4 7 6 4 3 4 3 3 6 10 9 15 24 14 8 6 3 5 9 7 1 3 5 4 6 5 6 8 7 3 3 7 8 19 18 20 18
2 5 6 6 3 3 5 5 7 7 7 1 4 5 4 4 2 4 11 8 13 4 8 4 1 5 11 12 6 4 4 5 6 5 5 6 6 5 7 9 12 15 20 22 19
3 1 1 5 3 5 2 3 7 10 7 11 4 4 1 5 7 5 3 7 12 10 8 7 2 6 18 16 9 9 7 8 5 6 7 6 7 7 8 7 16 17 18 18 20
3 4 5 3 5 6 6 6 9 12 5 7 4 5 3 2 3 14 4 4 6 5 4 4 6 11 19 13 15 9 11 9 7 5 4 8 5 8 4 7 11 16 19 20 21
4 4 4 4 5 4 3 7 8 9 5 6 8 4 1 1 12 16 17 9 8 3 2 2 3 5 10 15 18 9 8 7 5 6 10 5 9 8 6 7 8 14 18 21 22
Wind_Direction
353 349 346 344 341 338 333 330 328 326 325 325 325 326 324 321 310 165 248 217 190 241 353 302 315 332 94 240 193 112 73 255 239 119 129 148 168 226 217 151 177 210 142 131 116
349 347 344 341 337 331 330 327 325 325 324 324 324 324 323 328 297 250 240 210 206 180 159 283 313 8 340 262 201 112 131 242 185 140 155 178 173 180 158 143 139 136 130 121 119
348 345 340 336 332 329 328 327 325 323 321 322 324 322 323 324 325 253 285 208 204 169 235 312 329 36 295 65 250 165 190 241 276 116 142 152 175 205 134 150 153 155 118 120 115
345 341 336 332 329 328 326 325 320 318 317 321 320 320 324 271 289 270 352 185 151 150 161 220 145 165 255 254 239 255 241 225 264 116 128 162 141 153 154 160 151 128 129 128 124
339 338 334 330 328 327 324 320 316 315 315 316 316 317 331 23 251 264 84 103 129 143 188 189 166 169 225 227 10 180 263 274 259 159 142 138 144 137 189 132 127 136 129 130 134
337 335 333 330 328 326 322 318 312 310 312 309 305 297 164 263 243 190 137 130 148 157 191 164 205 187 279 262 148 246 271 266 144 138 142 141 153 137 201 157 144 142 137 132 132
335 333 332 330 326 324 320 314 307 306 305 295 259 212 249 238 107 115 129 237 171 190 186 221 169 88 337 322 244 250 280 309 143 138 130 115 153 198 165 175 153 148 139 135 126
335 331 331 329 325 322 319 312 305 302 292 265 207 190 248 241 251 274 236 266 247 216 214 247 179 228 171 231 357 345 65 232 275 139 169 161 182 172 173 174 156 145 122 112 115
335 331 328 328 326 323 319 311 307 291 195 147 141 190 266 303 200 225 167 208 219 251 264 271 211 205 357 60 2 7 247 205 294 179 155 168 119 175 179 163 151 135 128 116 107
335 331 328 326 326 323 321 308 280 117 162 187 256 1 274 263 254 223 172 194 182 229 318 271 50 37 13 78 228 250 313 299 242 281 150 172 171 174 173 161 159 140 137 132 126
335 332 328 325 325 323 336 355 10 3 296 219 211 234 280 236 311 261 206 174 157 102 177 274 98 236 240 203 227 236 225 249 270 256 183 193 159 179 171 163 161 142 138 132 128
333 332 329 323 322 322 150 14 237 234 295 231 243 231 249 58 306 291 127 161 130 203 205 358 224 233 237 251 236 255 262 277 283 264 182 167 175 174 176 177 170 151 149 144 141
332 331 329 321 320 329 248 239 293 324 278 285 220 234 218 174 226 256 176 176 177 206 217 193 241 227 220 254 257 257 231 254 233 338 67 95 49 170 194 132 156 144 120 138 156
330 331 330 327 353 321 286 279 326 208 21 282 238 254 152 148 276 212 195 162 189 203 236 224 253 244 243 242 214 245 224 236 229 123 206 130 223 211 158 116 158 160 166 177 167
327 326 326 324 297 318 263 327 317 55 6 297 263 105 139 154 195 211 171 125 181 205 147 246 275 269 251 241 246 251 248 215 155 175 115 116 106 282 140 170 179 180 178 180 167
325 322 326 134 207 244 309 304 52 44 271 328 30 7 20 276 277 4 133 77 171 198 212 239 249 198 242 275 227 247 232 40 69 110 113 228 132 246 189 209 156 179 189 163 161
326 316 307 237 237 310 316 32 43 122 321 360 354 350 307 259 260 223 219 210 187 168 256 283 271 262 234 281 312 126 65 330 340 16 209 226 93 225 211 207 195 184 157 166 162
326 316 193 221 253 358 30 52 105 276 277 342 350 329 23 13 337 293 209 216 234 148 165 206 295 243 250 191 225 216 154 158 207 208 237 263 161 240 222 98 85 151 170 153 158
326 322 256 256 210 115 67 61 209 258 336 332 332 311 326 345 328 18 27 256 262 177 201 201 258 272 239 275 156 248 152 194 144 233 76 212 165 328 138 132 119 145 151 163 170
326 337 279 274 139 64 72 217 251 280 307 317 324 316 316 335 327 2 312 269 325 330 223 230 259 257 270 272 290 185 185 84 356 168 224 311 145 218 215 168 169 163 168 173 171
16 20 266 120 74 50 144 231 286 306 349 319 323 296 300 358 263 289 256 306 11 2 21 349 231 262 128 184 233 303 177 79 122 135 172 174 261 210 197 203 171 181 174 172 174
358 15 295 24 36 22 73 295 300 354 344 28 347 330 45 308 292 278 253 283 3 124 328 18 247 239 248 231 216 170 217 152 143 234 134 149 263 225 197 191 171 180 176 178 177
360 276 313 86 56 345 325 303 324 342 337 6 307 50 30 323 343 332 352 3 10 15 13 324 326 321 286 324 34 187 186 142 109 69 185 141 249 253 137 138 171 164 173 176 170
37 4 331 26 95 52 346 298 322 305 304 80 33 82 345 7 133 309 338 3 343 283 358 31 280 211 262 240 192 198 135 138 117 120 178 209 180 185 187 164 175 173 170 175 170
32 344 70 326 333 329 240 295 323 0 1 23 59 69 49 328 324 342 330 326 335 55 31 325 267 320 307 267 202 203 200 166 154 162 148 200 195 218 203 165 177 176 164 164 164
62 37 342 284 297 338 14 347 2 354 351 347 334 294 190 198 211 298 266 153 246 324 359 356 309 336 313 312 226 199 204 176 156 140 130 142 189 186 210 115 134 174 165 169 169
326 342 105 283 330 3 39 344 342 345 308 344 327 289 222 342 299 272 256 249 230 181 248 243 129 20 295 327 303 241 190 186 167 178 144 153 210 162 171 152 154 171 178 171 174